[[{"header":{"parameterUnit":"m.s-1","parameterCategory":1,"la1":30.2991,"la2":30.254,"lo1":-89.0895,"lo2":-89.0444,"dy":0.0017,"dx":0.0017,"nx":28,"ny":28,"refTime":"2023-09-28T09:00:00:Z","depth":0,"parameterNumber":2,"parameterNumberName":"U-component_of_WINDS"},"data":[0,0,0,0,0,0,0,0,0,0,0,0,0,0,0,0,0,0,0,0,0,0,0,0,0,0,0,0,0,0,0,0,0,0,0,0,0,0,0,0,0,0,0,0,0,0,0,0,0,0,0,0,0,0,0,0,0,0,-5.8626,-5.8627,0,-5.8701,-5.8702,-5.8703,-5.8572,-5.8568,-5.8563,-5.8559,-5.8636,-5.8642,-5.8648,0,0,0,0,0,0,0,0,0,0,0,0,0,-5.8369,-5.8374,-5.8626,-5.8627,-5.8628,-5.8701,-5.8702,-5.8703,-5.8573,-5.8568,-5.8562,-5.8557,-5.8634,-5.8641,-5.8649,0,0,0,0,0,0,0,0,0,0,0,0,0,-5.8466,-5.8376,-5.8626,-5.8572,-5.8568,-5.8701,-5.8702,-5.8703,-5.8574,-5.8568,-5.8561,-5.8555,-5.8632,-5.8641,-5.865,-5.8839,0,0,-5.8678,-5.8682,0,0,0,0,0,0,0,0,-5.8461,-5.8476,-5.8579,-5.8576,-5.8571,-5.862,-5.8639,-5.8749,-5.8576,-5.8572,-5.8559,-5.8552,-5.8636,-5.8645,-5.8673,-5.8842,-5.8846,-5.8679,-5.8684,-5.8688,-5.8691,0,0,0,0,0,0,0,-5.8454,-5.8472,-5.8655,-5.858,-5.8576,-5.8543,-5.855,-5.8659,-5.864,-5.8571,-5.8562,-5.8573,-5.8633,-5.8665,-5.8674,-5.8847,-5.8678,-5.8687,-5.8692,-5.8696,-5.9174,-5.9181,0,0,0,0,0,0,-5.8454,-5.8467,-5.8653,-5.8658,-5.8499,-5.8554,-5.8561,-5.8611,-5.8638,-5.8636,-5.8579,-5.8567,-5.8652,-5.8663,-5.8676,-5.8898,-5.8688,-5.8697,-5.8702,-5.9167,-5.9175,-5.9183,0,0,0,0,0,0,-5.8449,-5.8472,-5.865,-5.856,-5.858,-5.8565,-5.8623,-5.8616,-5.8648,-5.8644,-5.864,-5.8615,-5.8647,-5.8663,-5.8799,-5.8899,-5.8701,-5.8709,-5.9158,-5.9169,-5.9179,-5.9345,0,0,0,0,0,0,-5.8442,-5.8471,-5.8543,-5.8562,-5.8585,-5.8772,-5.8629,-5.8623,-5.8664,-5.8649,-5.8676,-5.8675,-5.8643,-5.8786,-5.8808,-5.8908,-5.8717,-5.9149,-5.9163,-5.9176,-5.933,-5.936,-5.9385,0,0,0,0,0,-5.8434,-5.8586,-5.8547,-5.857,-5.8675,-5.8778,-5.8791,-5.8752,-5.8673,-5.8744,-5.8742,-5.8674,-5.8885,-5.8801,-5.8825,-5.8929,-5.9143,-5.9159,-5.9175,-5.9318,-5.9354,-5.9384,0,0,0,0,0,0,-5.8579,-5.8588,-5.8544,-5.8708,-5.8744,-5.8756,-5.8845,-5.8792,-5.885,-5.8834,-5.8783,-5.879,-5.8936,-5.8946,-5.8853,-5.9113,-5.9,-5.9022,-5.9101,-5.9135,-5.9162,-5.9156,-5.8724,0,0,0,0,0,-5.863,-5.8713,-5.8717,-5.8861,-5.8881,-5.8861,-5.8904,-5.8871,-5.8905,-5.892,-5.8927,-5.8963,-5.9037,-5.9087,-5.9155,-5.9332,-5.9335,-5.9415,-5.9443,-5.9465,-5.9484,-5.9577,-5.9612,-5.9236,-5.9236,-5.9236,0,0,-5.8736,-5.8751,-5.8807,-5.889,-5.8914,-5.9001,-5.8874,-5.8971,-5.9035,-5.8934,-5.9062,-5.907,-5.9106,-5.9263,-5.9333,-5.9276,-5.9589,-5.9486,-5.9504,-5.951,-5.9597,-5.9633,-5.9665,-5.9247,-5.9245,-5.9243,0,0,-5.8973,-5.8994,-5.9115,-5.9142,-5.9179,-5.9165,-5.9194,-5.9215,-5.9216,-5.9344,-5.927,-5.9346,-5.9475,-5.9504,-5.9536,-5.9785,-5.9724,-5.9809,-5.9952,-6.0043,-6.0073,-6.0099,-6.0187,-6.0219,-5.9828,-5.9829,-5.9829,0,-5.91,-5.9228,-5.9185,-5.9288,-5.9326,-5.924,-5.9362,-5.939,-5.9448,-5.9476,-5.9412,-5.9573,-5.9591,-5.9753,-5.9814,-5.9843,-5.9875,-5.9805,-6.0072,-6.0098,-6.0121,-6.0205,-6.0238,-5.9839,-5.9838,-5.9837,-5.9836,0,-5.9382,-5.9472,-5.9566,-5.9624,-5.9673,-5.9786,-5.9759,-5.9815,-5.9778,-5.9771,-5.9902,-5.9922,-5.9992,-6.0029,-5.9994,-6.0186,-6.015,-6.0081,-5.9965,-6.0168,-6.0245,-6.0277,-5.9853,-5.9849,-5.9846,-5.9844,0,0,-5.971,-5.9744,-5.9779,-5.9804,-5.9839,-5.9908,-6.0017,-6.0086,-6.0134,-6.0177,-6.0266,-6.0378,-6.0314,-6.035,-6.0318,-6.0399,-6.0594,-6.0319,-6.0319,-6.0368,-6.0806,-6.0857,-6.0894,-6.0555,-6.0561,-6.0566,-6.0802,0,-5.9945,-6.0132,-6.0096,-6.0279,-6.0361,-6.0281,-6.0375,-6.0407,-6.0404,-6.0473,-6.0469,-6.0548,-6.0458,-6.0479,-6.0556,-6.0554,-6.0681,-6.0537,-6.0636,-6.064,-6.0628,-6.0935,-6.0989,-6.1211,-6.0832,-6.0837,-6.0841,0,-6.0243,-6.0298,-6.0488,-6.051,-6.0543,-6.0629,-6.0689,-6.0757,-6.0792,-6.0783,-6.0825,-6.0777,-6.0885,-6.0771,-6.0918,-6.0821,-6.086,-6.0866,-6.0873,-6.0879,-6.0752,-6.0948,-6.1281,-6.1314,-6.0888,-6.0885,-6.0881,0,-6.0462,-6.0583,-6.0712,-6.0737,-6.0766,-6.0828,-6.0843,-6.0871,-6.0915,-6.0968,-6.0996,-6.1061,-6.1097,-6.1148,-6.112,-6.104,-6.1272,-6.1156,-6.1268,-6.1269,-6.1318,-6.1315,-6.1661,-6.1347,-6.1347,-6.1346,-6.1345,0,-6.0726,-6.0846,-6.0811,-6.089,-6.1022,-6.098,-6.1112,-6.1117,-6.1143,-6.1222,-6.1157,-6.1233,-6.1192,-6.1264,-6.1243,-6.1368,-6.1385,-6.1381,-6.1373,-6.1386,-6.1386,-6.1409,-6.1392,-6.1355,-6.1353,-6.1351,-6.135,0,-6.0992,-6.0973,-6.1109,-6.1126,-6.1133,-6.1229,-6.1243,-6.1318,-6.131,-6.141,-6.1432,-6.1419,-6.1501,-6.1479,-6.1568,-6.1554,-6.1711,-6.1685,-6.1699,-6.1692,-6.1804,-6.1794,-6.2176,-6.2223,-6.1881,-6.1884,-6.1887,0,-6.116,-6.125,-6.1277,-6.1326,-6.1346,-6.1425,-6.1469,-6.1432,-6.1481,-6.1528,-6.1596,-6.1673,-6.1731,-6.1866,-6.1865,-6.1933,-6.1907,-6.2036,-6.1917,-6.1926,-6.1907,-6.1901,-6.1909,-6.2059,-6.2063,-6.2067,-6.2069,0,-6.1462,-6.1448,-6.1515,-6.1579,-6.1634,-6.1683,-6.1725,-6.1769,-6.1735,-6.1793,-6.1876,-6.1922,-6.2013,-6.209,-6.2152,-6.2167,-6.2113,-6.2107,-6.2136,-6.2149,-6.2153,-6.215,-6.1762,-6.2098,-6.2095,-6.2093,-6.2091,-6.209,-6.1682,-6.1758,-6.1789,-6.1866,-6.1894,-6.1936,-6.2006,-6.2007,-6.2076,-6.2147,-6.2121,-6.2217,-6.2249,-6.2327,-6.2351,-6.2424,-6.2375,-6.2418,-6.2428,-6.2439,-6.2452,-6.2143,-6.2436,-6.2435,-6.2434,-6.2433,-6.2433,0,-6.1978,-6.1995,-6.2066,-6.2127,-6.2188,-6.2132,-6.2177,-6.2231,-6.2315,-6.235,-6.241,-6.2505,-6.258,-6.2585,-6.2654,-6.2712,-6.2689,-6.2732,-6.2726,-6.273,-6.2493,-6.246,-6.2749,-6.2749,-6.2749,-6.2749,-6.2749,-6.2749,-6.214,-6.2265,-6.2256,-6.2394,-6.2409,-6.2502,-6.2532,-6.257,-6.2598,-6.2707,-6.2769,-6.2772,-6.2795,-6.2866,-6.2931,-6.2931,-6.2959,-6.3011,-6.3001,-6.2779,-6.2747,-6.2717,-6.2685,-6.3018,-6.3018,-6.3232,-6.3234,-6.3235]},{"header":{"parameterUnit":"m.s-1","parameterCategory":1,"la1":30.2991,"la2":30.254,"lo1":-89.0895,"lo2":-89.0444,"dy":0.0017,"dx":0.0017,"nx":28,"ny":28,"refTime":"2023-09-28T09:00:00:Z","depth":0,"parameterNumber":3,"parameterNumberName":"V-component_of_WINDS"},"data":[0,0,0,0,0,0,0,0,0,0,0,0,0,0,0,0,0,0,0,0,0,0,0,0,0,0,0,0,0,0,0,0,0,0,0,0,0,0,0,0,0,0,0,0,0,0,0,0,0,0,0,0,0,0,0,0,0,0,0.3619,0.3617,0,0.3487,0.3486,0.3484,0.3454,0.3455,0.3456,0.3457,0.3316,0.3312,0.3307,0,0,0,0,0,0,0,0,0,0,0,0,0,0.3839,0.3835,0.3619,0.3617,0.3616,0.3488,0.3486,0.3484,0.3454,0.3455,0.3456,0.3457,0.3318,0.3312,0.3307,0,0,0,0,0,0,0,0,0,0,0,0,0,0.3729,0.3834,0.3619,0.3585,0.3581,0.3488,0.3486,0.3484,0.3454,0.3455,0.3456,0.3458,0.332,0.3313,0.3306,0.3236,0,0,0.3285,0.3282,0,0,0,0,0,0,0,0,0.3736,0.3721,0.3592,0.3587,0.3582,0.3489,0.3512,0.34,0.3453,0.3502,0.3457,0.3458,0.3372,0.3361,0.3333,0.3229,0.3223,0.3285,0.328,0.3277,0.3275,0,0,0,0,0,0,0,0.3743,0.3727,0.3567,0.359,0.3584,0.3575,0.3561,0.3491,0.3431,0.3498,0.3495,0.348,0.337,0.334,0.333,0.3221,0.3285,0.3279,0.3274,0.3272,0.3054,0.3052,0,0,0,0,0,0,0.3757,0.3733,0.3571,0.3563,0.3664,0.357,0.3554,0.3517,0.3431,0.342,0.3479,0.3479,0.3351,0.3338,0.3325,0.3237,0.3277,0.3271,0.3267,0.3056,0.3054,0.3052,0,0,0,0,0,0,0.3762,0.3743,0.3576,0.3647,0.3625,0.3565,0.3523,0.3514,0.3484,0.3418,0.3406,0.346,0.3352,0.3334,0.3259,0.3232,0.3268,0.3262,0.3058,0.3055,0.3053,0.3061,0,0,0,0,0,0,0.3769,0.3745,0.3719,0.3647,0.3622,0.3514,0.3522,0.351,0.3473,0.3472,0.3397,0.3385,0.3351,0.3269,0.3252,0.3223,0.3256,0.306,0.3056,0.3054,0.3063,0.3059,0.3056,0,0,0,0,0,0.3777,0.3725,0.3717,0.3698,0.3588,0.3512,0.3498,0.3461,0.3471,0.3443,0.3401,0.3388,0.3238,0.3262,0.3242,0.321,0.3061,0.3057,0.3054,0.3064,0.306,0.3056,0,0,0,0,0,0,0.3792,0.3715,0.3706,0.3629,0.3578,0.3507,0.3471,0.3458,0.3401,0.3402,0.3358,0.3341,0.3268,0.3232,0.326,0.3138,0.315,0.3142,0.3164,0.316,0.3156,0.3166,0.325,0,0,0,0,0,0.3787,0.3734,0.3669,0.3607,0.3582,0.3532,0.3497,0.3474,0.3418,0.3396,0.3348,0.3292,0.3233,0.3195,0.3136,0.3058,0.3041,0.3027,0.3023,0.3021,0.3014,0.297,0.2963,0.304,0.304,0.304,0,0,0.3775,0.3726,0.3695,0.3609,0.3567,0.3512,0.3513,0.3454,0.3412,0.3386,0.3312,0.3276,0.3211,0.3134,0.3098,0.3102,0.299,0.3016,0.3015,0.3009,0.2966,0.2959,0.2952,0.3037,0.3038,0.3038,0,0,0.3725,0.3683,0.3628,0.3586,0.3523,0.349,0.3477,0.3409,0.3384,0.331,0.3289,0.3238,0.3137,0.3092,0.3056,0.2992,0.2977,0.2974,0.2955,0.2913,0.2907,0.2902,0.2878,0.287,0.2968,0.2968,0.2968,0,0.3717,0.3635,0.36,0.3543,0.3506,0.3483,0.3426,0.3387,0.3307,0.3281,0.3287,0.316,0.3115,0.3028,0.3013,0.2984,0.2967,0.2981,0.2911,0.2905,0.2899,0.2877,0.2868,0.2968,0.2968,0.2968,0.2968,0,0.3628,0.3572,0.3534,0.3461,0.3419,0.3363,0.3319,0.3281,0.3262,0.3229,0.3154,0.3099,0.303,0.3008,0.2988,0.2918,0.2922,0.292,0.293,0.2893,0.287,0.2861,0.2968,0.2968,0.2968,0.2968,0,0,0.3581,0.3492,0.3478,0.3445,0.3375,0.333,0.3272,0.3207,0.3175,0.3121,0.3071,0.2987,0.2986,0.2945,0.292,0.2883,0.2836,0.2886,0.2884,0.2878,0.2755,0.2756,0.2747,0.2827,0.2825,0.2824,0.276,0,0.3522,0.342,0.3389,0.3303,0.325,0.3228,0.3178,0.3129,0.3096,0.3046,0.3009,0.295,0.2953,0.2928,0.2891,0.285,0.2811,0.2854,0.2778,0.2776,0.2794,0.2735,0.2735,0.2678,0.2752,0.275,0.2749,0,0.3438,0.3386,0.3295,0.3234,0.321,0.3166,0.3104,0.3056,0.3,0.2979,0.2935,0.2914,0.2852,0.2868,0.2781,0.2811,0.2779,0.2754,0.2751,0.2741,0.2759,0.2723,0.2659,0.265,0.2735,0.2736,0.2737,0,0.3412,0.3319,0.3253,0.3226,0.3152,0.3121,0.3089,0.3034,0.2997,0.2943,0.2919,0.2857,0.2823,0.2775,0.2737,0.2752,0.2654,0.2667,0.2634,0.2634,0.2612,0.2614,0.2541,0.2594,0.2594,0.2594,0.2594,0,0.3348,0.3294,0.3241,0.32,0.3139,0.3103,0.3042,0.3009,0.2961,0.2912,0.289,0.2844,0.2798,0.2746,0.2716,0.2649,0.2634,0.2614,0.2606,0.2615,0.2618,0.2592,0.2594,0.2592,0.2592,0.2592,0.2593,0,0.3308,0.3271,0.3198,0.3135,0.3118,0.3075,0.3021,0.298,0.2948,0.2887,0.287,0.2819,0.2757,0.2716,0.2635,0.2615,0.2542,0.2536,0.2562,0.2558,0.2527,0.253,0.2434,0.2419,0.2483,0.2482,0.2482,0,0.3269,0.3227,0.3161,0.3128,0.3096,0.3043,0.3006,0.297,0.2933,0.2867,0.2834,0.2771,0.2719,0.2621,0.2575,0.2514,0.2505,0.2476,0.2496,0.2506,0.2504,0.2507,0.2502,0.2472,0.2472,0.2472,0.2471,0,0.3204,0.3188,0.3137,0.308,0.3037,0.299,0.2942,0.2916,0.2872,0.283,0.2768,0.2728,0.2648,0.2586,0.2521,0.2486,0.247,0.2466,0.2455,0.2463,0.2479,0.2469,0.2552,0.2468,0.2468,0.2468,0.2468,0.2469,0.3162,0.3124,0.3072,0.3016,0.2978,0.2934,0.2893,0.2857,0.2806,0.2739,0.2721,0.2656,0.2602,0.2514,0.2478,0.2426,0.2428,0.2412,0.2408,0.2404,0.2404,0.2489,0.2414,0.2414,0.2414,0.2414,0.2414,0,0.3095,0.3062,0.3011,0.2946,0.2902,0.2895,0.2843,0.2806,0.275,0.2702,0.2652,0.2581,0.2521,0.2472,0.2409,0.2377,0.2369,0.2362,0.2363,0.2355,0.2405,0.2421,0.237,0.237,0.237,0.237,0.237,0.237,0.3055,0.2991,0.2969,0.2885,0.2851,0.279,0.276,0.272,0.2681,0.2604,0.2555,0.2525,0.2476,0.241,0.2355,0.2342,0.2319,0.2314,0.2299,0.2347,0.2351,0.2356,0.237,0.231,0.231,0.2253,0.2252,0.2252]}]]